Weather in Nizhny-Noyber

Russia / Chechen Republic     43°16′12″N   46°16′37″E
temp.,
°C
wind,
m/s
gust,
m/s
humid.,
%
clouds,
%
prec.,
mm/h
press.,
hPa
HPBL,
m
6 may, thu
thu600:00+9se228467 0.0 101821
03:00+8se118897 0.0 101714
06:00+10ese128223 0.0 101790
09:00+16e665590 0.0 1015788
12:00+18ene77470 0.0 10141083
15:00+18ene89500 0.0 1012791
18:00+14ene59633 0.0 1013333
21:00+9ssw11775 0.0 101518
7 may, fri
fri700:00+8se1185100 0.0 101411
03:00+8w228681 0.0 101514
06:00+10wsw118181 0.0 101651
09:00+16n216396 0.0 1017565
12:00+19n2253100 0.0 10161014
15:00+21nne22492 0.0 10161289
18:00+18e347117 0.0 101781
21:00+13sse228322 0.0 101918
8 may, sat
sat800:00+12s11815 0.0 101914
03:00+11s11760 0.0 101812
06:00+13se11720 0.0 101834
09:00+18ene45621 0.0 1016579
12:00+22ene66545 0.0 10151002
15:00+21ene78565 0.0 1013736
18:00+17ene3676100 0.0 1013270
21:00+12s009177 0.0 101315
9 may, sun
sun900:00+12wsw119399 0.0 101110
03:00+12w22941 0.0 101024
06:00+14e128632 0.0 100865
09:00+19ne3373100 0.0 1006446
12:00+22nw566172 0.0 10081316
15:00+20w6870100 0.3 10091225
18:00+16sw51190100 2.8 1012407
21:00+9wsw111690100 6.9 1020993
10 may, mon
mon1000:00+7wsw91391100 1.8 10221041
03:00+7wsw81289100 2.1 10231091
06:00+6wsw71187100 0.3 1023911
09:00+9wsw6975100 1.8 10231283
12:00+11wsw575828 0.5 10221221
15:00+15nw35424 0.5 10192025
18:00+14ne226038 0.0 101934
21:00+9sse336318 0.0 102138